{"data":{"norad_id":62090,"intl_designator":"2024-220C","name":"STARLINK-11387 [DTC]","alt_names":[],"object_type":"PAYLOAD","status":"ACTIVE","operator":null,"country":"US","launch_date":"2024-11-25","launch_site_code":"AFETR","launch_vehicle":null,"mission":null,"orbit_class":"UNKNOWN","rcs_meters":null,"size_class":null,"mass_kg":null,"dimensions":null,"purposes":["comms"],"wikipedia_slug":null,"has_3d_model":false,"image_url":null,"decayed_at":null,"tle_current":{"epoch":"2026-05-25T03:15:40.908096Z","epoch_age_seconds":62987,"freshness":"FRESH","line1":"1 62090U 24220C   26145.13589014  .00128881  00000+0  99029-3 0  9995","line2":"2 62090  43.0013 302.5059 0001510 291.2210  68.8497 15.70890475 87078","mean_motion":15.70890475,"eccentricity":0.000151,"inclination_deg":43.0013,"raan_deg":302.5059,"arg_perigee_deg":291.221,"mean_anomaly_deg":68.8497,"bstar":0.00099029,"rev_number":8707,"period_min":91.667752966673,"perigee_km":355.33389077738,"apogee_km":357.36770609251,"semimajor_km":6734.4877984349,"source":"CELESTRAK","updated_at":"2026-05-25T13:38:19.557189Z"}}}